ZL4VM-1 Weather Reports


Display with metric or nautical units.
time (UTC)temp
F
wind
direction
speed
MPH
gust
MPH
rain 1hr
in
rain 24hr
in
rain mn
in
humidity
%
barometer
mb
20260510103355 43 268 10.0 21.0 0.00 0.05 0.19 78 1009.4
20260510102455 43 263 6.0 18.0 0.00 0.05 0.19 78 1009.5
20260510101555 43 245 10.0 26.0 0.00 0.05 0.19 77 1009.5
20260510100655 43 232 9.0 24.0 0.00 0.05 0.19 77 1009.0
20260510095754 43 241 11.0 22.0 0.00 0.05 0.19 78 1008.4
20260510093954 43 293 8.0 17.0 0.00 0.05 0.19 78 1008.2
20260510093054 43 245 10.0 21.0 0.00 0.05 0.19 77 1007.9
20260510091255 43 246 9.0 25.0 0.00 0.05 0.19 78 1008.1
20260510090354 43 223 7.0 20.0 0.00 0.05 0.19 78 1008.0
20260510085454 43 235 9.0 27.0 0.00 0.05 0.19 80 1007.3
20260510083654 43 280 11.0 33.0 0.00 0.05 0.19 79 1006.6
20260510081855 43 249 13.0 34.0 0.00 0.05 0.19 78 1006.0
20260510080954 43 241 16.0 34.0 0.00 0.05 0.19 78 1005.9
20260510080054 43 248 13.0 27.0 0.00 0.05 0.19 79 1005.6
20260510075155 43 271 15.0 27.0 0.00 0.05 0.19 79 1005.5
20260510074254 43 241 17.0 27.0 0.00 0.05 0.19 80 1005.4
20260510073354 43 259 14.0 23.0 0.00 0.05 0.19 80 1005.8
20260510072454 43 272 13.0 36.0 0.00 0.05 0.19 77 1006.0
20260510070654 43 286 12.0 27.0 0.00 0.05 0.19 82 1005.5
20260510065754 43 253 10.0 24.0 0.00 0.05 0.19 82 1005.1
20260510063054 43 249 6.0 22.0 0.00 0.05 0.19 83 1004.7
20260510062154 43 290 13.0 22.0 0.00 0.05 0.19 83 1004.5
20260510061254 43 278 13.0 22.0 0.00 0.05 0.19 83 1004.0
20260510053654 43 257 12.0 21.0 0.00 0.05 0.19 84 1003.5
20260510052754 44 285 7.0 21.0 0.00 0.05 0.19 84 1003.5
20260510051854 43 257 8.0 23.0 0.00 0.05 0.19 85 1003.2
20260510045154 43 277 10.0 21.0 0.00 0.05 0.19 89 1002.5
20260510044254 43 256 8.0 23.0 0.00 0.05 0.19 87 1002.5
20260510043354 44 245 14.0 22.0 0.00 0.05 0.19 82 1002.5
20260510042454 45 287 11.0 23.0 0.00 0.05 0.18 75 1002.1
20260510041554 45 263 8.0 20.0 0.03 0.05 0.18 73 1001.8
20260510040654 46 233 11.0 23.0 0.03 0.05 0.18 73 1001.5
20260510035754 46 258 11.0 23.0 0.03 0.05 0.18 73 1001.6
20260510034854 46 282 14.0 27.0 0.03 0.05 0.18 73 1001.3
20260510033954 46 259 6.0 26.0 0.03 0.05 0.18 74 1001.0
20260510033054 45 286 15.0 40.0 0.03 0.05 0.18 73 1000.9
20260510032154 45 244 20.0 26.0 0.00 0.02 0.16 76 1000.5
20260510031254 46 235 10.0 21.0 0.00 0.02 0.16 76 1000.6
20260510030354 46 255 15.0 22.0 0.00 0.02 0.16 77 1000.8
20260510024554 46 241 10.0 24.0 0.00 0.02 0.16 81 1000.2
20260510023654 46 265 8.0 21.0 0.00 0.02 0.16 83 1000.2
20260510022754 47 288 14.0 21.0 0.00 0.02 0.16 84 999.9
20260510021854 47 219 8.0 18.0 0.00 0.02 0.16 88 1000.0
20260510020953 46 241 11.0 19.0 0.00 0.02 0.16 92 999.7
20260510015154 45 269 14.0 34.0 0.00 0.02 0.16 82 999.4
20260510014253 48 269 13.0 34.0 0.00 0.02 0.16 79 999.2
20260510013354 47 240 16.0 24.0 0.00 0.02 0.16 85 999.1
20260510012454 46 236 6.0 27.0 0.00 0.02 0.16 81 999.0
20260510010653 47 262 15.0 23.0 0.00 0.02 0.16 74 998.6
20260510005753 48 260 10.0 31.0 0.00 0.02 0.16 74 999.0
20260510004853 48 271 15.0 21.0 0.00 0.02 0.16 76 998.7
20260510003954 48 240 9.0 23.0 0.00 0.02 0.16 78 999.0
20260510002154 48 254 7.0 19.0 0.00 0.02 0.16 81 998.7
20260510001253 47 245 8.0 28.0 0.00 0.02 0.16 83 998.6
20260509235453 47 228 10.0 23.0 0.00 0.02 0.16 82 998.1
20260509233654 47 212 9.0 21.0 0.00 0.02 0.16 81 997.8
20260509232753 47 232 9.0 24.0 0.00 0.02 0.16 79 998.0
20260509231853 47 233 16.0 21.0 0.00 0.02 0.16 78 998.1
20260509230953 47 247 11.0 26.0 0.00 0.02 0.16 75 997.8
20260509230053 47 243 14.0 25.0 0.00 0.02 0.16 75 997.5
20260509225153 47 258 10.0 20.0 0.00 0.02 0.16 73 997.4
20260509224253 47 234 6.0 20.0 0.00 0.02 0.16 72 997.3
20260509223353 48 240 6.0 24.0 0.00 0.02 0.16 71 996.9
20260509222453 48 270 11.0 21.0 0.00 0.02 0.16 71 996.9
20260509221553 47 213 8.0 21.0 0.00 0.02 0.16 75 996.6
20260509220653 47 241 10.0 27.0 0.00 0.02 0.16 74 996.3
20260509215753 47 270 12.0 27.0 0.00 0.02 0.16 76 996.4
20260509214853 47 260 11.0 21.0 0.01 0.02 0.16 77 996.4
20260509213953 47 235 12.0 23.0 0.02 0.02 0.16 77 996.6
20260509213053 47 258 11.0 33.0 0.02 0.02 0.16 76 996.5
20260509212153 47 295 15.0 28.0 0.02 0.02 0.16 78 996.3
20260509211253 47 272 11.0 27.0 0.02 0.02 0.16 79 995.6
20260509210353 47 252 13.0 34.0 0.02 0.02 0.16 79 995.7
20260509204554 47 278 15.0 28.0 0.00 0.00 0.14 84 995.3
20260509202753 47 231 17.0 25.0 0.00 0.00 0.14 83 995.2
20260509201853 47 290 13.0 28.0 0.00 0.00 0.14 82 994.7
20260509200953 47 239 12.0 28.0 0.00 0.00 0.14 85 994.3
20260509200053 47 248 15.0 28.0 0.00 0.00 0.14 85 994.3
20260509195153 47 272 15.0 34.0 0.00 0.00 0.00 84 994.1
20260509194254 47 244 13.0 27.0 0.00 0.00 0.00 84 993.8
20260509193353 48 228 15.0 23.0 0.00 0.00 0.00 84 993.7
20260509192453 48 261 11.0 25.0 0.00 0.00 0.00 83 993.3
20260509185753 48 282 12.0 27.0 0.00 0.00 0.00 87 993.0
20260509184853 48 271 8.0 31.0 0.00 0.00 0.00 90 993.0
20260509183953 48 250 17.0 27.0 0.00 0.00 0.00 93 992.6
20260509183053 47 279 14.0 26.0 0.00 0.00 0.00 95 992.6
20260509180353 48 281 11.0 27.0 0.00 0.00 0.00 91 992.4
20260509175453 48 257 13.0 24.0 0.00 0.00 0.00 90 991.9
20260509174552 48 241 11.0 24.0 0.00 0.00 0.00 90 991.8
20260509173653 49 268 17.0 27.0 0.00 0.00 0.00 90 991.4
20260509172753 49 244 9.0 20.0 0.00 0.00 0.00 90 991.5
20260509171853 50 220 12.0 19.0 0.00 0.00 0.00 88 991.5
20260509170952 50 273 13.0 21.0 0.00 0.00 0.00 88 991.1
20260509170053 50 229 11.0 24.0 0.00 0.00 0.00 88 991.1
20260509165152 50 186 11.0 27.0 0.00 0.00 0.00 89 990.9
20260509164253 50 306 12.0 40.0 0.00 0.00 0.00 88 991.1
20260509163353 50 242 9.0 20.0 0.00 0.00 0.00 91 991.0
20260509161611 50 267 6.0 25.0 0.00 0.00 0.00 92 990.7
20260509160652 50 267 8.0 18.0 0.00 0.00 0.00 91 991.4
20260509155752 51 240 9.0 17.0 0.00 0.00 0.00 87 991.1
20260509154852 51 232 10.0 16.0 0.00 0.00 0.00 86 991.1
20260509153953 51 225 7.0 17.0 0.00 0.00 0.00 84 990.7
20260509153053 52 213 9.0 16.0 0.00 0.00 0.00 79 990.3
20260509152153 54 202 9.0 15.0 0.00 0.00 0.00 71 990.0
20260509151252 54 244 6.0 10.0 0.00 0.00 0.00 69 989.8
20260509145452 54 224 4.0 13.0 0.00 0.00 0.00 67 989.5
20260509144552 54 302 3.0 10.0 0.00 0.00 0.00 69 989.7
20260509143652 54 283 5.0 13.0 0.00 0.00 0.00 68 989.7
20260509142753 54 263 8.0 17.0 0.00 0.00 0.00 68 989.5
20260509141852 54 305 7.0 17.0 0.00 0.00 0.00 69 989.5
20260509140952 54 322 5.0 15.0 0.00 0.00 0.00 68 989.6
20260509135152 54 287 7.0 21.0 0.00 0.00 0.00 69 989.6
20260509134252 53 286 7.0 15.0 0.00 0.00 0.00 74 989.3
20260509133352 52 283 5.0 15.0 0.00 0.00 0.00 82 989.8
20260509132453 51 264 10.0 15.0 0.00 0.00 0.00 84 990.1
20260509131552 51 264 9.0 15.0 0.00 0.00 0.00 84 990.2
20260509130652 51 262 6.0 21.0 0.00 0.00 0.00 84 990.4
20260509125752 51 274 11.0 21.0 0.00 0.00 0.00 85 990.4
20260509124852 51 229 9.0 20.0 0.00 0.00 0.00 85 990.6
20260509123952 51 256 9.0 21.0 0.00 0.00 0.00 85 990.8
20260509123052 51 234 9.0 19.0 0.00 0.00 0.00 84 990.7
20260509122152 51 238 14.0 25.0 0.00 0.00 0.00 84 990.8
20260509121252 51 225 9.0 25.0 0.00 0.00 0.00 84 990.6
20260509120352 51 242 8.0 19.0 0.00 0.00 0.00 84 990.6
20260509114552 51 264 8.0 15.0 0.00 0.00 0.12 84 991.1
20260509113652 52 225 4.0 15.0 0.00 0.00 0.12 84 991.3
20260509111852 52 236 10.0 18.0 0.00 0.00 0.12 83 991.4
20260509110952 52 243 11.0 18.0 0.00 0.00 0.12 84 990.9
20260509110052 52 249 8.0 21.0 0.00 0.00 0.12 84 991.1
20260509105152 52 258 6.0 21.0 0.00 0.00 0.12 84 991.3
20260509104252 52 250 13.0 21.0 0.00 0.00 0.12 84 990.9